Weather History for Zanesville, OH

Change the Weather History Date:

Sunday, May 26, 2013

  Actual Average Record
Temperature  
Mean Temperature 51 °F 63 °F  
Max Temperature 68 °F 75 °F 89 °F (2012)
Min Temperature 34 °F 52 °F 34 °F (2013)
Degree Days  
Heating Degree Days 14 4  
Month to date heating degree days 133 165  
Since 1 July heating degree days 5541 5522  
Cooling Degree Days 0 2  
Month to date cooling degree days 55 32  
Year to date cooling degree days 72 41  
Moisture  
Dew Point 35 °F    
Average Humidity 60    
Maximum Humidity 92    
Minimum Humidity 28    
Precipitation  
Precipitation 0.00 in 0.14 in 1.10 in (1965)
Month to date precipitation 1.14 3.47  
Year to date precipitation 10.32 14.74  
Sea Level Pressure  
Sea Level Pressure 30.29 in    
Wind  
Wind Speed 1 mph (North)    
Max Wind Speed 10 mph    
Max Gust Speed 16 mph    
Visibility 10 miles    
Events      
T = Trace of Precipitation, MM = Missing Value Source: NWS Daily Summary

Daily Weather History Graph

Daily Weather History Graph

Search for Another Location

Airport:

Trip Planner

Search our weather history database for the weather conditions in past years. The results will help you decide how hot, cold, wet, or windy it might be!

Date:

Astronomy

May. 26, 2013 Rise Set
Actual Time 6:03 AM EDT 8:45 PM EDT
Civil Twilight 5:32 AM EDT 9:17 PM EDT
Nautical Twilight 4:52 AM EDT 9:57 PM EDT
Astronomical Twilight 4:07 AM EDT 10:42 PM EDT
Moon 10:32 PM EDT (5/26) 7:31 AM EDT (5/26)
Length of Visible Light 15h 45m
Length of Day
14h 41m
Waning Gibbous, 97% of the Moon is Illuminated
May 26
Waning Gibbous
May 31
Last Quarter
Jun 8
New
Jun 16
First Quarter
Jun 23
Full

Hourly Weather History & Observations

Time (EDT) Temp. Dew Point Humidity Pressure Visibility Wind Dir Wind Speed Gust Speed Precip Events Conditions
12:53 AM 44.1 °F 35.1 °F 71% 30.29 in 10.0 mi Calm Calm - N/A   Clear
1:53 AM 39.9 °F 35.1 °F 83% 30.29 in 10.0 mi Calm Calm - N/A   Clear
2:53 AM 37.9 °F 35.1 °F 89% 30.28 in 10.0 mi Calm Calm - N/A   Clear
3:53 AM 39.0 °F 36.0 °F 89% 30.29 in 10.0 mi Calm Calm - N/A   Clear
4:53 AM 37.0 °F 34.0 °F 89% 30.29 in 10.0 mi Calm Calm - N/A   Clear
5:53 AM 35.1 °F 32.0 °F 89% 30.30 in 10.0 mi Calm Calm - N/A   Clear
6:53 AM 36.0 °F 34.0 °F 93% 30.32 in 10.0 mi Calm Calm - N/A   Clear
7:53 AM 42.1 °F 37.9 °F 85% 30.33 in 10.0 mi Calm Calm - N/A   Clear
8:53 AM 50.0 °F 39.0 °F 66% 30.33 in 10.0 mi Calm Calm - N/A   Clear
9:53 AM 52.0 °F 35.1 °F 53% 30.33 in 10.0 mi Calm Calm - N/A   Clear
10:53 AM 57.9 °F 35.1 °F 42% 30.34 in 10.0 mi NNW 5.8 mph - N/A   Clear
11:53 AM 60.1 °F 30.0 °F 32% 30.32 in 10.0 mi Variable 3.5 mph - N/A   Clear
12:53 PM 62.1 °F 32.0 °F 32% 30.31 in 10.0 mi Variable 4.6 mph - N/A   Clear
1:53 PM 63.0 °F 33.1 °F 33% 30.30 in 10.0 mi Variable 3.5 mph - N/A   Clear
2:53 PM 64.9 °F 34.0 °F 32% 30.29 in 10.0 mi NE 4.6 mph - N/A   Clear
3:53 PM 66.0 °F 34.0 °F 30% 30.28 in 10.0 mi NNW 6.9 mph - N/A   Clear
4:53 PM 66.9 °F 36.0 °F 32% 30.26 in 10.0 mi Calm Calm - N/A   Clear
5:53 PM 66.0 °F 35.1 °F 32% 30.25 in 10.0 mi Calm Calm - N/A   Clear
6:53 PM 66.0 °F 32.0 °F 28% 30.25 in 10.0 mi Calm Calm - N/A   Clear
7:53 PM 64.0 °F 33.1 °F 31% 30.23 in 10.0 mi Calm Calm - N/A   Clear
8:53 PM 57.9 °F 39.0 °F 49% 30.23 in 10.0 mi Calm Calm - N/A   Clear
9:53 PM 54.0 °F 39.9 °F 59% 30.24 in 10.0 mi NE 3.5 mph - N/A   Clear
10:53 PM 48.9 °F 41.0 °F 74% 30.25 in 10.0 mi Calm Calm - N/A   Clear
11:53 PM 46.9 °F 41.0 °F 80% 30.26 in 10.0 mi Calm Calm - N/A   Clear